Volver al catálogo

FREGAT DEB

ActivoUNKNOWN
NORAD 46002·DEBRIS·🇷🇺 Russia

Lanzado Jul 18, 2011 desde Baikonur Cosmodrome

Loading…

Próximos Pases (próximas 24 horas)

TLE

ActualizadoSource: Space-Track

Época: Sep 14, 2026, 13:44 UTC

1 46002U 11037HD  26257.57290270  .00023551  00000-0  49966-1 0  9999
2 46002  51.1351 326.6598 1319978 344.0793  12.2025 11.59034840238636

Sigue FREGAT DEB en tiempo real con AllMySat

Download on the App Store